NUSAT-3 (MILANESAT) (42760 NORAD) Tracking and Keplerian Element Data

This shows tracking and keplerian element data for the satellite.

Feedback or suggestion? Click here.




ElementValue
Catalog42760
NameNUSAT-3 (MILANESAT)
Epoch Orbit15430
Epoch Day92.139158
Epoch Year2020
RAAN90.7611
Inclination43.0169
Eccentricity0.0011367
Argument of Perigee282.2072
Mean Anonmoly162.5243
Mean Motion15.10248763
Decay Rate1.64E-06
L11 42760U 17034C 20092.13915800 .00000164 00000-0 23233-4 0 9992
L22 42760 43.0169 90.7611 0011367 282.2072 162.5243 15.10248763154302

Live tracking and technical data element details for NUSAT-3 (MILANESAT) (NORAD 42760). NUSAT-3 (MILANESAT) can be tracked NOW for your location showing map with azimuth and elevation plus other details from your city location.

Track the satellite on the map from your city or location and see movement details for azimuth, elevation, latitude, longitude, range, height, and movement on the map or in text.







IsCatalogInMostPopularTable: catalog: 42760, numindb: 334
Update: records affected: 1



GetName: 42760 NUSAT-3 (MILANESAT)

Hit Count: updated at: Thu, 02 Apr 2020 03:55:36 GMT